Location: *
(50.2903°S, 172.5375°W)
Time: 15:43:49
(UTC+00:00)

Cosmos 1953 - Pass Details

Date: 17 November 2019
Orbit: 539 x 559 km, 82.5° (Epoch: 13 December)

Event Time Altitude Azimuth Distance (km) Brightness Sun altitude
Exits shadow 12:39:10 19° 42° (NE) 1,374 4.1 -18.3°
Maximum altitude 12:41:19 30° 90° (E) 1,018 3.8 -18.2°
Drops below altitude 10° 12:44:57 10° 151° (SSE) 1,875 6.3 -17.9°
Sets 12:47:19 0° 161° (SSE) 2,783 7.7 -17.8°
